Participated 3 times
Between 1993 and 1998
Oliverio Rincón, Colombia
Tour de France 2026 starts from Barcelona, Spain in

Stats and Facts from
Tour de France.

2026   2025   2024   2023  2022  2021  2020  2019   2018  2017   2016   2015  2014  2013   2012   2011  2010   2009   2008   2007   2006   2005   2004   2003   2002   2001   2000   1999   1998   1997  1996   1995   1994   1993   1992  1991   1990   1989   1988   1987   1986   1985   1984   1983  1982  1981   1980   1979  1978  1977   1976  1975  1974  1973   1972   1971   1970  1969   1968   1967   1966   1965  1964  1963   1962   1961   1960   1959   1958   1957  1956   1955   1954   1953   1952  1951  1950  1949   1948  1947  1939   1938   1937   1936   1935   1934   1933  1932   1931   1930  1929   1928   1927   1926  1925  1924  1923   1922   1921   1920   1919  1914   1913   1912   1911   1910  1909   1908   1907   1906  1905  1904   1903 

Tourstats
Sitemap

After stage 21 - 2025:
 16451 starters.
  5464 different riders.
  689 teams.
  2398 stages.
  470 restdays.
  466506.50 km.
  5925 abandoned riders.

Click map for 1910 route.
Facts from Tour de France 1910 Additional info and images from 1910.
  |   Stages.  |   Stage winners.  |   Days in jerseys.  |   Teams.  |   All riders.  |   All riders by age.  |   All riders from.  |  

  |   Rookies.  |   Withdrawls.  |   Average speed.  |   GC.  |   Polka  |   Green  |   White  |   Summits. (In tour)  |   Miscellaneous.  |  

Stage 3 on July 7th. 1910
Pick a stage:  1  2  3  4  5  6  7  8  9  10  11  12  13  14  15  

After stage 3:    François Faber  
  MetzBelfort | Dist: 259.00km. | Winner: Emile Georget

Podium

Average speed for all riders in stage:  21,844 km./hr.

1
 Emile Georget  Legnano09h 07' 00"=28,410  km/h

2
 François Faber  Alcyon09h 11' 00"+  00:04:00 =28,203  km/h

3
 Gustave Garrigou  Alcyon09h 12' 00"+  00:05:00 =28,152  km/h

4  Henri Cornet  Le Globe09h 17' 00"+  00:10:00 =27,899  km/h

5  Cyrille Van Hauwaert  Alcyon09h 21' 00"+  00:14:00 =27,701  km/h

6  Octave Lapize  Alcyon09h 27' 00"+  00:20:00 =27,407  km/h

7  Lucien Petit-Breton  Legnano09h 31' 00"+  00:24:00 =27,215  km/h

8  François  Lafourcade  Individual09h 32' 00"+  00:25:00 =27,168  km/h

9  Augustin Ringeval  Individual09h 32' 00"+  00:25:00 =27,168  km/h

10  Constant Menager  Legnano09h 39' 00"+  00:32:00 =26,839  km/h

11  Charles Cruchon  Individual09h 48' 00"+  00:41:00 =26,429  km/h

12  Maurice Brocco  Legnano09h 48' 00"+  00:41:00 =26,429  km/h

13  Ernest Paul  Individual09h 57' 00"+  00:50:00 =26,030  km/h

14  Charles Crupelandt  Le Globe10h 03' 00"+  00:56:00 =25,771  km/h

15  Julien Maîtron  Le Globe10h 03' 00"+  00:56:00 =25,771  km/h

16  Pierino Albini  Legnano10h 08' 00"+  01:01:00 =25,559  km/h

17  Frédéric Saillot  Le Globe10h 13' 00"+  01:06:00 =25,351  km/h

18  Louis Trousselier  Alcyon10h 20' 00"+  01:13:00 =25,065  km/h

19  Aldo Bettini  Alcyon10h 28' 00"+  01:21:00 =24,745  km/h

20  Georges Paulmier  Le Globe10h 33' 00"+  01:26:00 =24,550  km/h

21  Giuseppe Azzini  Legnano10h 36' 00"+  01:29:00 =24,434  km/h

22  Marcel Godivier  Alcyon10h 44' 00"+  01:37:00 =24,130  km/h

23  André Blaise  Alcyon10h 45' 00"+  01:38:00 =24,093  km/h

24  Omer Beaugendre  Le Globe10h 46' 00"+  01:39:00 =24,056  km/h

25  Auguste Guyon  Individual10h 51' 00"+  01:44:00 =23,871  km/h

26  Edouard Leonard  Alcyon10h 51' 00"+  01:44:00 =23,871  km/h

27  Jean-Baptiste Dortignacq  Legnano11h 00' 00"+  01:53:00 =23,545  km/h

28  Leon Lannoy  Le Globe11h 10' 00"+  02:03:00 =23,194  km/h

29  Joseph Leblanc  Individual11h 11' 00"+  02:04:00 =23,159  km/h

30  François Riou  Individual11h 14' 00"+  02:07:00 =23,056  km/h

31  Emile Abegg  Individual11h 33' 00"+  02:26:00 =22,424  km/h

32  Antony Wattelier  Individual11h 40' 00"+  02:33:00 =22,200  km/h

33  Henri Alavoine  Individual11h 44' 00"+  02:37:00 =22,074  km/h

34  Gabriel Mathonat  Individual11h 46' 00"+  02:39:00 =22,011  km/h

35  Noel Combelles  Individual11h 48' 00"+  02:41:00 =21,949  km/h

36  Georges Fleury  Individual12h 04' 00"+  02:57:00 =21,464  km/h

37  Rene Bartholet  Individual12h 09' 00"+  03:02:00 =21,317  km/h

38  Jules Deloffre  Le Globe12h 15' 00"+  03:08:00 =21,143  km/h

39  Maurice Pardon  Individual12h 16' 00"+  03:09:00 =21,114  km/h

40  Andre Kuhn  Individual12h 18' 00"+  03:11:00 =21,057  km/h

41  René Chaudé  Individual12h 19' 00"+  03:12:00 =21,028  km/h

42  Georges Cauvry  Individual12h 27' 00"+  03:20:00 =20,803  km/h

43  Pietro Ghislotti  Individual12h 29' 00"+  03:22:00 =20,748  km/h

44  Jean Bouillet  Individual12h 40' 00"+  03:33:00 =20,447  km/h

45  Joseph Habierre  Individual12h 44' 00"+  03:37:00 =20,340  km/h

46  Lucien Leman  Individual12h 45' 00"+  03:38:00 =20,314  km/h

47  Auguste Dufour  Individual12h 48' 00"+  03:41:00 =20,234  km/h

48  Paul Boillat  Individual13h 02' 00"+  03:55:00 =19,872  km/h

49  Lucien Roquebert  Individual13h 05' 00"+  03:58:00 =19,796  km/h

50  Eugene Leroy  Individual13h 07' 00"+  04:00:00 =19,746  km/h

51  Pierre Privat  Individual13h 07' 00"+  04:00:00 =19,746  km/h

52  Lucien Pothier  Individual13h 07' 00"+  04:00:00 =19,746  km/h

53  Charles Dumont  Individual13h 07' 00"+  04:00:00 =19,746  km/h

54  Jean Perrucca  Individual13h 07' 00"+  04:00:00 =19,746  km/h

55  Albert Baudet  Individual13h 07' 00"+  04:00:00 =19,746  km/h

56  Maurice Decaup  Legnano13h 07' 00"+  04:00:00 =19,746  km/h

57  Francois Picolot  Individual13h 07' 00"+  04:00:00 =19,746  km/h

58  Lauro Bordin  Legnano13h 07' 00"+  04:00:00 =19,746  km/h

59  Louis Jouin  Individual13h 07' 00"+  04:00:00 =19,746  km/h

60  Raphael Galiero  Individual13h 07' 00"+  04:00:00 =19,746  km/h

61  Alphonse Charpiot  Le Globe13h 07' 00"+  04:00:00 =19,746  km/h

62  Emile Lamy  Individual13h 07' 00"+  04:00:00 =19,746  km/h

63  Eugene Moura  Individual13h 07' 00"+  04:00:00 =19,746  km/h

64  Robert Chopard  Individual13h 07' 00"+  04:00:00 =19,746  km/h

65  Andre Herbelin  Individual13h 07' 00"+  04:00:00 =19,746  km/h

66  Louis Picard  Individual13h 07' 00"+  04:00:00 =19,746  km/h

67  Albert Cognat  Individual13h 07' 00"+  04:00:00 =19,746  km/h

68  Emile Godard  Individual13h 07' 00"+  04:00:00 =19,746  km/h

69  Georges Wagner  Individual13h 07' 00"+  04:00:00 =19,746  km/h

70  Jean-Baptiste Camdessoucens  Individual13h 07' 00"+  04:00:00 =19,746  km/h

71  Camille Bière  Individual13h 07' 00"+  04:00:00 =19,746  km/h

72  Paul Amiot  Individual13h 07' 00"+  04:00:00 =19,746  km/h

73  Hippolyte Charpentier  Individual13h 07' 00"+  04:00:00 =19,746  km/h

74  Louis Pennequin  Individual13h 07' 00"+  04:00:00 =19,746  km/h

75  Constant Collet  Individual13h 07' 00"+  04:00:00 =19,746  km/h

76  Alexandre Rambaudi  Individual13h 07' 00"+  04:00:00 =19,746  km/h

77  Henri Ory  Individual13h 07' 00"+  04:00:00 =19,746  km/h

78  Joseph Wiringer  Individual13h 07' 00"+  04:00:00 =19,746  km/h

79  Georges Devilly  Individual13h 07' 00"+  04:00:00 =19,746  km/h

80  Adolphe Hélière  Individual13h 07' 00"+  04:00:00 =19,746  km/h

81  Emile Besnier  Individual13h 07' 00"+  04:00:00 =19,746  km/h

82  Pierre Desvages  Individual13h 07' 00"+  04:00:00 =19,746  km/h

83  Adrien Heloin  Individual13h 07' 00"+  04:00:00 =19,746  km/h


Withdrawls: 15
 RiderTeamReason
30   Maurice Loit Le GlobeDid not finish
110   Charles Pavese IndividualDid not finish
114   Louis Faudon IndividualDid not finish
115   Emile Lamboeuf IndividualDid not finish
122   Pierre Bordigoni IndividualDid not finish
138   Achille Violet IndividualDid not finish
142   Frederic Vaillant IndividualDid not finish
157   Charles Clodi IndividualDid not finish
159   Amédée Dutiron IndividualDid not finish
162   Adrien Melaye IndividualDid not finish
175   Edmond Heliot IndividualDid not finish
176   Victor Pasquier IndividualDid not finish
179   Célestin Guillermoz IndividualDid not finish
197   Pietro Fiore IndividualDid not finish
202   Octave Doury IndividualDid not finish
Todays birthdays.

1889 • Adolphe Landon
1890 • Jules Lebreton
1904 • Julien Grujon
1909 • Erich Metze
1926 • Giovanni Rossi
1928 • Serge Blusson
1928 • Alois Vansteenkiste
1931 • André Dupré
1934 • Alfred Rüegg
1962 • Francisco Espinosa
1962 • Paul Kimmage
1963 • Federico Muñoz
1966 • Andrea Tafi
1971 • Emmanuel Magnien
1973 • Paolo Savoldelli
1985 • Mikhail Ignatyev

 

Optimized for Chrome - Edge
and Opera browsers.